EW3486 Weather Reports


time (UTC)temp
C
wind
direction
speed
KPH
gust
KPH
rain 1hr
cm
rain 24hr
cm
rain mn
cm
humidity
%
barometer
mb
20260506153413 23 357 3.2 0.0 0.00 0.00 0.00 37 322.5
20260506152907 23 356 3.2 0.0 0.00 0.00 0.00 36 322.5
20260506152401 23 29 3.2 0.0 0.00 0.00 0.00 35 322.5
20260506151855 23 30 3.2 19.3 0.00 0.00 0.00 35 322.6
20260506151349 23 54 4.8 19.3 0.00 0.00 0.00 36 322.6
20260506150843 23 70 6.4 19.3 0.00 0.00 0.00 33 322.6
20260506150337 23 88 6.4 24.1 0.00 0.00 0.00 34 322.5
20260506145831 23 109 4.8 24.1 0.00 0.00 0.00 35 322.5
20260506145325 24 95 4.8 0.0 0.00 0.00 0.00 35 322.5
20260506144819 24 103 6.4 0.0 0.00 0.00 0.00 36 322.5
20260506144313 24 155 4.8 0.0 0.00 0.00 0.00 37 322.4
20260506143807 24 172 4.8 0.0 0.00 0.00 0.00 35 322.4
20260506143301 24 191 4.8 0.0 0.00 0.00 0.00 36 322.4
20260506142755 24 201 6.4 0.0 0.00 0.00 0.00 35 322.4
20260506142249 25 203 3.2 0.0 0.00 0.00 0.00 37 322.4
20260506141743 25 233 4.8 32.2 0.00 0.00 0.00 37 322.4
20260506141237 25 245 6.4 32.2 0.00 0.00 0.00 38 322.4
20260506140731 25 259 3.2 0.0 0.00 0.00 0.00 38 322.4
20260506140225 25 272 4.8 19.3 0.00 0.00 0.00 37 322.4
20260506135719 25 287 3.2 0.0 0.00 0.00 0.00 40 322.4
20260506135213 25 301 4.8 0.0 0.00 0.00 0.00 39 322.4
20260506134707 25 319 4.8 0.0 0.00 0.00 0.00 38 322.4
20260506134201 25 333 4.8 0.0 0.00 0.00 0.00 40 322.4
20260506133655 25 338 3.2 0.0 0.00 0.00 0.00 41 322.4
20260506133149 25 352 4.8 0.0 0.00 0.00 0.00 40 322.4
20260506132643 24 5 4.8 0.0 0.00 0.00 0.00 40 322.5
20260506132137 25 19 6.4 0.0 0.00 0.00 0.00 37 322.4
20260506131631 25 31 4.8 0.0 0.00 0.00 0.00 38 322.4
20260506131125 25 46 4.8 0.0 0.00 0.00 0.00 38 322.4
20260506130619 25 53 4.8 0.0 0.00 0.00 0.00 38 322.4
20260506130113 25 69 6.4 0.0 0.00 0.00 0.00 37 322.4
20260506125607 25 89 6.4 0.0 0.00 0.00 0.00 36 322.4
20260506125101 25 92 3.2 0.0 0.00 0.00 0.00 38 322.4
20260506124555 25 101 6.4 0.0 0.00 0.00 0.00 36 322.4
20260506124049 25 113 3.2 0.0 0.00 0.00 0.00 40 322.4
20260506123543 25 125 4.8 0.0 0.00 0.00 0.00 38 322.4
20260506123037 25 139 4.8 0.0 0.00 0.00 0.00 39 322.4
20260506122531 25 145 6.4 24.1 0.00 0.00 0.00 35 322.4
20260506122025 25 152 4.8 24.1 0.00 0.00 0.00 36 322.3
20260506121519 25 157 4.8 24.1 0.00 0.00 0.00 40 322.3
20260506121013 25 97 4.8 19.3 0.00 0.00 0.00 37 322.3
20260506120507 25 174 1.6 19.3 0.00 0.00 0.00 39 322.3
20260506120001 25 83 4.8 0.0 0.00 0.00 0.00 39 322.3
20260506115455 25 148 3.2 19.3 0.00 0.00 0.00 39 322.2
20260506114949 26 353 3.2 19.3 0.00 0.00 0.00 40 322.3
20260506114443 25 204 3.2 0.0 0.00 0.00 0.00 41 322.3
20260506113937 26 214 4.8 0.0 0.00 0.00 0.00 38 322.3
20260506113431 26 219 3.2 0.0 0.00 0.00 0.00 37 322.3
20260506112925 26 225 1.6 0.0 0.00 0.00 0.00 38 322.3
20260506112419 26 225 3.2 24.1 0.00 0.00 0.00 38 322.3
20260506111913 26 234 3.2 24.1 0.00 0.00 0.00 37 322.4
20260506111407 26 231 1.6 0.0 0.00 0.00 0.00 44 322.4
20260506110901 26 235 1.6 0.0 0.00 0.00 0.00 44 322.4
20260506110355 26 239 1.6 0.0 0.00 0.00 0.00 43 322.4
20260506105849 26 236 3.2 0.0 0.00 0.00 0.00 44 322.4
20260506105343 26 241 3.2 0.0 0.00 0.00 0.00 44 322.5
20260506104837 26 246 1.6 0.0 0.00 0.00 0.00 43 322.5
20260506104331 26 247 1.6 24.1 0.00 0.00 0.00 42 322.5
20260506103825 26 257 4.8 24.1 0.00 0.00 0.00 41 322.5
20260506103319 26 251 1.6 0.0 0.00 0.00 0.00 45 322.5
20260506102813 26 251 1.6 0.0 0.00 0.00 0.00 44 322.5
20260506102307 26 246 3.2 0.0 0.00 0.00 0.00 44 322.6
20260506101801 26 252 3.2 0.0 0.00 0.00 0.00 44 322.6
20260506101255 26 241 3.2 0.0 0.00 0.00 0.00 43 322.7
20260506100749 25 255 0.0 0.0 0.00 0.00 0.00 43 322.7
20260506100243 25 253 3.2 0.0 0.00 0.00 0.00 42 322.8
20260506095737 25 88 1.6 0.0 0.00 0.00 0.00 42 322.8
20260506095231 25 250 3.2 0.0 0.00 0.00 0.00 42 322.8
20260506094725 25 244 3.2 0.0 0.00 0.00 0.00 42 322.9
20260506094219 25 240 3.2 0.0 0.00 0.00 0.00 43 322.9
20260506093713 25 236 0.0 0.0 0.00 0.00 0.00 42 323.0
20260506093207 24 234 0.0 0.0 0.00 0.00 0.00 43 323.1
20260506092701 24 230 3.2 0.0 0.00 0.00 0.00 43 323.1
20260506092155 24 229 0.0 0.0 0.00 0.00 0.00 43 323.1
20260506091649 24 224 1.6 0.0 0.00 0.00 0.00 44 323.2
20260506091143 24 214 0.0 0.0 0.00 0.00 0.00 44 323.2
20260506090637 23 214 3.2 0.0 0.00 0.00 0.00 44 323.3
20260506090131 23 205 0.0 0.0 0.00 0.00 0.00 43 323.3
20260506085625 23 200 0.0 0.0 0.00 0.00 0.00 45 323.4
20260506085119 23 191 3.2 0.0 0.00 0.00 0.00 45 323.5
20260506084613 23 185 1.6 0.0 0.00 0.00 0.00 45 323.5
20260506084107 23 177 1.6 0.0 0.00 0.00 0.00 45 323.5
20260506083601 23 170 0.0 0.0 0.00 0.00 0.00 43 323.6
20260506083055 23 158 3.2 0.0 0.00 0.00 0.00 44 323.6
20260506082549 23 154 4.8 0.0 0.00 0.00 0.00 42 323.7
20260506082043 23 144 1.6 0.0 0.00 0.00 0.00 41 323.7
20260506081537 23 129 0.0 0.0 0.00 0.00 0.00 42 323.7
20260506081031 23 124 0.0 0.0 0.00 0.00 0.00 43 323.8
20260506080525 22 111 0.0 0.0 0.00 0.00 0.00 43 323.8
20260506073449 21 49 0.0 0.0 0.00 0.00 0.00 45 324.1
20260506072943 21 29 0.0 0.0 0.00 0.00 0.00 44 324.2
20260506072437 21 22 0.0 0.0 0.00 0.00 0.00 44 324.2
20260506071931 21 11 0.0 0.0 0.00 0.00 0.00 45 324.3
20260506071425 21 359 0.0 0.0 0.00 0.00 0.00 48 324.3
20260506070919 20 348 0.0 0.0 0.00 0.00 0.00 50 324.4
20260506070413 20 331 0.0 0.0 0.00 0.00 0.00 49 324.4
20260506062325 18 213 0.0 0.0 0.00 0.00 0.00 56 324.8
20260506061819 18 184 0.0 0.0 0.00 0.00 0.00 56 324.9
20260506061313 18 165 0.0 0.0 0.00 0.00 0.00 56 324.9
20260506060807 18 160 0.0 0.0 0.00 0.00 0.00 58 325.0
20260506060301 18 129 0.0 0.0 0.00 0.00 0.00 58 325.0
20260506051201 15 358 0.0 0.0 0.00 0.00 0.00 64 325.6
20260506050655 15 351 0.0 0.0 0.00 0.00 0.00 66 325.6
20260506050149 14 339 0.0 0.0 0.00 0.00 0.00 68 325.7
20260506044631 13 289 0.0 0.0 0.00 0.00 0.00 69 325.8
20260506044125 12 176 0.0 0.0 0.00 0.00 0.00 71 325.8
20260506043619 12 110 0.0 0.0 0.00 0.00 0.00 71 325.9
20260506043113 12 105 0.0 0.0 0.00 0.00 0.00 72 325.9
20260506042607 12 103 0.0 0.0 0.00 0.00 0.00 73 325.9
20260506042101 12 103 0.0 0.0 0.00 0.00 0.00 73 325.9
20260506041555 12 94 0.0 0.0 0.00 0.00 0.00 72 325.9
20260506041049 12 84 0.0 0.0 0.00 0.00 0.00 72 325.9
20260506040543 12 85 0.0 0.0 0.00 0.00 0.00 72 325.9
20260506040037 12 85 0.0 0.0 0.00 0.00 0.00 73 325.9
20260506035531 12 86 0.0 0.0 0.00 0.00 0.00 74 325.9
20260506035025 12 77 0.0 0.0 0.00 0.00 0.00 73 325.9
20260506034519 12 69 0.0 0.0 0.00 0.00 0.00 71 325.9
20260506034013 12 68 0.0 0.0 0.00 0.00 0.00 68 326.0
20260506033507 12 66 0.0 0.0 0.00 0.00 0.00 66 326.0
20260506033001 12 58 0.0 0.0 0.00 0.00 0.00 66 326.0
20260506032455 12 58 0.0 0.0 0.00 0.00 0.00 69 326.0
20260506031949 12 60 0.0 0.0 0.00 0.00 0.00 73 326.0
20260506031443 12 63 0.0 0.0 0.00 0.00 0.00 72 326.0
20260506030937 12 56 0.0 0.0 0.00 0.00 0.00 71 326.0
20260506030431 12 59 0.0 0.0 0.00 0.00 0.00 72 326.0
20260506025925 12 62 0.0 0.0 0.00 0.00 0.00 71 326.0
20260506025419 12 58 0.0 0.0 0.00 0.00 0.00 69 325.9
20260506024913 12 57 0.0 0.0 0.00 0.00 0.00 69 325.8
20260506024407 12 59 0.0 0.0 0.00 0.00 0.00 69 325.8
20260506023901 12 58 0.0 0.0 0.00 0.00 0.00 68 325.7
20260506023355 12 53 0.0 0.0 0.00 0.00 0.00 66 325.7
20260506022849 13 53 0.0 0.0 0.00 0.00 0.00 65 325.8
20260506022343 13 55 0.0 0.0 0.00 0.00 0.00 65 325.8
20260506021837 13 56 0.0 0.0 0.00 0.00 0.00 67 325.8
20260506021331 13 53 0.0 0.0 0.00 0.00 0.00 66 325.7
20260506020825 13 55 0.0 0.0 0.00 0.00 0.00 67 325.7
20260506020319 13 54 0.0 0.0 0.00 0.00 0.00 65 325.7
20260506015813 13 56 0.0 0.0 0.00 0.00 0.00 64 325.7
20260506015307 13 53 0.0 0.0 0.00 0.00 0.00 63 325.7
20260506014801 13 51 0.0 0.0 0.00 0.00 0.00 63 325.7
20260506014255 13 50 0.0 0.0 0.00 0.00 0.00 59 325.7
20260506013749 13 53 0.0 0.0 0.00 0.00 0.00 58 325.7
20260506013243 13 52 0.0 0.0 0.00 0.00 0.00 56 325.6
20260506012737 13 51 0.0 0.0 0.00 0.00 0.00 56 325.6
20260506012231 13 50 0.0 0.0 0.00 0.00 0.00 56 325.5
20260506011725 13 52 0.0 0.0 0.00 0.00 0.00 55 325.5
20260506011219 13 51 0.0 0.0 0.00 0.00 0.00 54 325.5
20260506010713 13 50 0.0 0.0 0.00 0.00 0.00 53 325.5
20260506010207 14 52 0.0 0.0 0.00 0.00 0.00 52 325.4
20260506005701 14 50 0.0 0.0 0.00 0.00 0.00 51 325.5
20260506005155 14 50 0.0 0.0 0.00 0.00 0.00 51 325.5
20260506004649 14 52 0.0 0.0 0.00 0.00 0.00 50 325.5
20260506004143 14 51 0.0 0.0 0.00 0.00 0.00 50 325.4
20260506003637 14 48 0.0 0.0 0.00 0.00 0.00 51 325.4
20260506003131 15 55 0.0 0.0 0.00 0.00 0.00 50 325.4
20260506002625 15 47 0.0 0.0 0.00 0.00 0.00 49 325.3
20260506002119 15 51 0.0 0.0 0.00 0.00 0.00 49 325.3
20260506001613 15 51 0.0 0.0 0.00 0.00 0.00 48 325.3
20260506001107 16 49 0.0 0.0 0.00 0.00 0.00 45 325.2
20260506000601 16 49 0.0 0.0 0.00 0.00 0.00 45 325.2
20260506000055 16 51 0.0 0.0 0.00 0.00 0.00 42 325.2
20260505235549 17 51 0.0 0.0 0.00 0.00 0.00 40 325.2
20260505235043 17 53 0.0 0.0 0.00 0.00 0.00 40 325.2
20260505234537 16 53 1.6 0.0 0.00 0.00 0.00 41 325.2
20260505234031 16 53 3.2 0.0 0.00 0.00 0.00 41 325.2
20260505233525 16 51 0.0 0.0 0.00 0.00 0.00 42 325.2
20260505233019 16 53 1.6 0.0 0.00 0.00 0.00 42 325.2
20260505232513 16 55 0.0 0.0 0.00 0.00 0.00 41 325.2
20260505232007 16 50 1.6 0.0 0.00 0.00 0.00 42 325.1
20260505231501 17 53 3.2 0.0 0.00 0.00 0.00 42 325.1
20260505230955 17 53 0.0 0.0 0.00 0.00 0.00 41 325.1
20260505230449 17 52 1.6 0.0 0.00 0.00 0.00 42 325.1
20260505225943 17 54 1.6 0.0 0.00 0.00 0.00 42 325.1
20260505225437 17 47 3.2 0.0 0.00 0.00 0.00 43 325.0
20260505224931 17 50 1.6 0.0 0.00 0.00 0.00 41 325.0
20260505224425 17 53 1.6 0.0 0.00 0.00 0.00 41 325.0
20260505223919 17 59 0.0 0.0 0.00 0.00 0.00 40 325.0
20260505223413 17 53 0.0 0.0 0.00 0.00 0.00 42 325.0
20260505222907 17 48 0.0 0.0 0.00 0.00 0.00 43 325.1
20260505222401 17 54 3.2 0.0 0.00 0.00 0.00 43 325.1
20260505221855 16 55 1.6 0.0 0.00 0.00 0.00 44 325.1
20260505221349 16 50 0.0 0.0 0.00 0.00 0.00 44 325.1
20260505220843 16 55 3.2 0.0 0.00 0.00 0.00 44 325.0
20260505220337 16 52 3.2 0.0 0.00 0.00 0.00 44 325.0
20260505215831 16 52 0.0 0.0 0.00 0.00 0.00 45 325.0
20260505215325 16 47 3.2 0.0 0.00 0.00 0.00 44 325.0
20260505214819 16 50 0.0 0.0 0.00 0.00 0.00 44 324.9
20260505214313 17 59 0.0 0.0 0.00 0.00 0.00 44 324.9
20260505213807 17 50 0.0 0.0 0.00 0.00 0.00 44 324.9
20260505213301 17 51 0.0 0.0 0.00 0.00 0.00 44 324.9
20260505212755 17 51 0.0 0.0 0.00 0.00 0.00 43 324.9
20260505212249 17 51 0.0 0.0 0.00 0.00 0.00 44 324.9
20260505211743 17 53 0.0 0.0 0.00 0.00 0.00 43 325.0
20260505211237 17 50 0.0 0.0 0.00 0.00 0.00 44 325.0
20260505210731 16 50 4.8 0.0 0.00 0.00 0.00 44 325.0
20260505210225 16 53 0.0 0.0 0.00 0.00 0.00 45 324.9
20260505205719 17 52 1.6 0.0 0.00 0.00 0.00 44 324.9
20260505205213 17 53 1.6 0.0 0.00 0.00 0.00 43 324.8
20260505204707 17 56 1.6 0.0 0.00 0.00 0.00 43 324.8
20260505204201 17 53 1.6 0.0 0.00 0.00 0.00 44 324.8
20260505203655 17 57 3.2 0.0 0.00 0.00 0.00 43 324.9
20260505203149 17 56 3.2 0.0 0.00 0.00 0.00 44 324.9
20260505202643 17 56 3.2 0.0 0.00 0.00 0.00 44 324.8
20260505202137 17 51 1.6 0.0 0.00 0.00 0.00 44 324.8
20260505201631 17 53 0.0 0.0 0.00 0.00 0.00 43 324.8
20260505201125 17 49 0.0 0.0 0.00 0.00 0.00 45 324.7
20260505200619 17 53 0.0 0.0 0.00 0.00 0.00 44 324.7
20260505200113 17 50 0.0 0.0 0.00 0.00 0.00 43 324.6
20260505195607 17 52 1.6 0.0 0.00 0.00 0.00 42 324.6
20260505195101 17 53 3.2 0.0 0.00 0.00 0.00 43 324.6
20260505194555 17 56 0.0 0.0 0.00 0.00 0.00 43 324.6
20260505194049 17 55 0.0 0.0 0.00 0.00 0.00 44 324.6
20260505193543 17 53 0.0 0.0 0.00 0.00 0.00 44 324.6
20260505193037 17 55 0.0 0.0 0.00 0.00 0.00 44 324.6
20260505192531 18 53 3.2 0.0 0.00 0.00 0.00 44 324.5
20260505192025 18 53 1.6 0.0 0.00 0.00 0.00 43 324.5
20260505191519 17 57 3.2 0.0 0.00 0.00 0.00 44 324.5
20260505191013 17 56 3.2 0.0 0.00 0.00 0.00 45 324.5
20260505190507 17 51 3.2 0.0 0.00 0.00 0.00 46 324.5
20260505190001 17 55 3.2 0.0 0.00 0.00 0.00 45 324.5
20260505185455 17 55 0.0 0.0 0.00 0.00 0.00 46 324.4
20260505184949 17 56 0.0 0.0 0.00 0.00 0.00 46 324.4
20260505184443 17 54 0.0 0.0 0.00 0.00 0.00 45 324.4
20260505183937 17 57 3.2 0.0 0.00 0.00 0.00 45 324.3
20260505183431 17 54 3.2 0.0 0.00 0.00 0.00 46 324.3
20260505182925 17 56 1.6 0.0 0.00 0.00 0.00 46 324.2
20260505182419 17 54 1.6 0.0 0.00 0.00 0.00 45 324.1
20260505181913 18 54 0.0 0.0 0.00 0.00 0.00 44 324.1
20260505181407 18 56 0.0 0.0 0.00 0.00 0.00 45 324.1
20260505180901 18 55 0.0 0.0 0.00 0.00 0.00 45 324.0
20260505180355 18 52 0.0 0.0 0.00 0.00 0.00 45 323.9
20260505175849 19 58 0.0 0.0 0.00 0.00 0.00 45 323.9
20260505175343 19 57 0.0 0.0 0.00 0.00 0.00 43 323.9
20260505174837 19 59 0.0 0.0 0.00 0.00 0.00 42 323.8
20260505174331 19 59 0.0 0.0 0.00 0.00 0.00 42 323.8
20260505173825 19 60 3.2 0.0 0.00 0.00 0.00 42 323.8
20260505173319 19 62 0.0 0.0 0.00 0.00 0.00 44 323.7
20260505172813 20 65 3.2 0.0 0.00 0.00 0.00 43 323.6
20260505172307 20 60 3.2 0.0 0.00 0.00 0.00 43 323.4
20260505171801 20 65 3.2 0.0 0.00 0.00 0.00 42 323.2
20260505171255 20 69 1.6 0.0 0.00 0.00 0.00 40 322.9
20260505170749 21 74 1.6 0.0 0.00 0.00 0.00 40 322.5
20260505170243 21 79 0.0 0.0 0.00 0.00 0.00 39 322.3
20260505165737 21 80 0.0 0.0 0.00 0.00 0.00 40 321.9
20260505165231 22 89 0.0 0.0 0.00 0.00 0.00 40 321.6
20260505164725 22 92 0.0 0.0 0.00 0.00 0.00 41 321.4
20260505164219 22 93 0.0 0.0 0.00 0.00 0.00 41 321.3
20260505163713 22 96 0.0 0.0 0.00 0.00 0.00 40 321.2
20260505163207 23 102 3.2 0.0 0.00 0.00 0.00 39 321.1
20260505162701 23 98 1.6 0.0 0.00 0.00 0.00 40 321.0
20260505162155 24 101 3.2 0.0 0.00 0.00 0.00 38 320.9
20260505161649 25 106 3.2 0.0 0.00 0.00 0.00 37 320.8
20260505161143 25 117 0.0 0.0 0.00 0.00 0.00 35 320.9
20260505160637 25 148 0.0 0.0 0.00 0.00 0.00 36 321.2
20260505160131 25 196 0.0 0.0 0.00 0.00 0.00 36 321.5